IRIDIUM 33 DEB, 34652

Orbit data source: Space-Track

IRIDIUM 33 DEB, 34652 is space debris in LEO originally from a launch on Sun, 14 Sep 1997 UTC launched from the Tyuratam Missile And Space Complex (TTMTR). The debris from Iridium 33, an American commercial communications satellite, has been tracked extensively since its accidental collision with the defunct Russian satellite Cosmos 2251 in 2009. This event, occurring at high speed in low Earth orbit (LEO), generated thousands of pieces of space debris, significantly increasing the risk of further collisions. The Iridium 33 debris cloud has impacted space traffic management and orbital debris mitigation strategies, making it a subject of ongoing study in space situational awareness.

Loading next visibility...
Identifier
34652, 1997-051KD
Orbit
LEO
Country
Flag of USUS
Related business
Manufacturer
Unknown
Mission
Spacecraft
Bus & Motor
Unknown
Mass
Unknown
Launch date (UTC)
1997-09-14 (29 years ago)
Launch vehicle
Unknown
Launch site
Tyuratam Missile And Space Complex (TTMTR)
Object type
Payload
Rocket body
Debris
Shape & HBR
Unknown shape, 0.1 m
Radar Cross Section
Medium (>0.1 m² and <1 m²)

Expand to show TLE details & history
Last TLE update: 10 hours ago

TLE from 10 hours ago
0 IRIDIUM 33 DEB
1 34652U 97051KD  26208.83518579  .00003090  00000-0  58455-3 0  9998
2 34652  86.3277 238.7026 0025296 236.7231 299.1112 14.63886765918042
Epoch: 2026-07-27T20:02Z
TLE epoch observation values (Epoch: 2026-07-27T20:02:40.052Z)
Latitude
4.31655°
Longitude
172.24658°
Altitude
674.632 km
Speed
7.524 km/s
True Right ascension
03h 53m 42s
True Declination
4° 17' 26"
Sunlit
Object was in daylight at epoch
Visualization orbit readout
Latitude
Unknown
Longitude
Unknown
Altitude
Unknown
Speed
Unknown
Apparent Right ascension
Unknown
Apparent Declination
Unknown
Sunlit
N/A
Visualization observer readout
Local Sidereal Time
19:03:01
Azimuth
Unknown
Elevation
Unknown
Doppler factor
Unknown
Orbital elements
Apogee altitude
695.424 km
Perigee altitude
659.728 km
Semi-major axis
7,055.713 km
Eccentricity
0.00253
Inclination
86.3277°
RAAN
238.7026°
Arg. of periapsis
236.7231°
True anomaly
298.85756°
Mean anomaly
299.1112°
Eccentric anomaly
298.98442°
Mean motion
3.66211 °/min
Orbital period
98.3 mins
BSTAR
0.00058455
Loading maneuver chart data...
Computing Atmospheric mass density...

Documentation

Showing up to 5 results
|